Location: Kerguer�zec
(48.4509°N, 4.7600°W)
Time: 16:13:36
(UTC+00:00)

CZ-4 R/B - Pass Details

Date: 09 April 2020
Orbit: 531 x 598 km, 97.8° (Epoch: 03 June)

Event Time Altitude Azimuth Distance (km) Brightness Sun altitude
Rises 19:34:06 0° 200° (SSW) 2,664 4.8 -6.0°
Reaches altitude 10° 19:36:36 10° 216° (SW) 1,780 4.2 -6.3°
Maximum altitude 19:39:32 21° 267° (W) 1,239 4.2 -6.8°
Drops below altitude 10° 19:42:31 10° 317° (NW) 1,800 5.1 -7.3°
Sets 19:45:04 0° 334° (NNW) 2,704 5.7 -7.7°
